Zurück zum Katalog

DELTA 1 DEB

AktivUNKNOWN
NORAD 13536·DEBRIS·🇺🇸 United States

Gestartet Jul 29, 1976 von Vandenberg Space Force Base

Loading…

Nächste Überflüge (nächste 24 Stunden)

TLE

AktuellSource: Space-Track

Epoche: Sep 12, 2026, 13:40 UTC

1 13536U 76077EJ  26255.57002527 -.00000142  00000-0 -13669-2 0  9999
2 13536 101.7911 156.7053 0420069 262.9395 220.4105 11.75920550 68322

Verfolge DELTA 1 DEB in Echtzeit mit AllMySat

Download on the App Store